| time (UTC) | temp F | wind direction | speed knots | gust knots | rain 1hr in | rain 24hr in | rain mn in | humidity % | barometer mb |
| 20260507225003 | 55 | 0 | 0.0 | 0.0 | 0.00 | 0.02 | 0.00 | 67 | 1012.8 |
| 20260507224504 | 55 | 0 | 0.0 | 0.0 | 0.00 | 0.02 | 0.00 | 67 | 1012.9 |
| 20260507224003 | 56 | 0 | 0.0 | 0.0 | 0.00 | 0.02 | 0.00 | 67 | 1012.9 |
| 20260507223524 | 56 | 0 | 0.0 | 0.0 | 0.00 | 0.02 | 0.00 | 67 | 1013.0 |
| 20260507223003 | 56 | 46 | 0.0 | 1.7 | 0.00 | 0.02 | 0.00 | 66 | 1012.9 |
| 20260507222524 | 56 | 46 | 0.0 | 1.7 | 0.00 | 0.04 | 0.00 | 66 | 1012.9 |
| 20260507222003 | 56 | 0 | 0.0 | 0.0 | 0.00 | 0.04 | 0.00 | 66 | 1012.9 |
| 20260507221524 | 56 | 0 | 0.0 | 0.0 | 0.00 | 0.04 | 0.00 | 67 | 1012.9 |
| 20260507221024 | 56 | 0 | 0.0 | 0.0 | 0.00 | 0.04 | 0.00 | 66 | 1012.7 |
| 20260507220503 | 57 | 85 | 0.0 | 0.9 | 0.00 | 0.04 | 0.00 | 65 | 1012.9 |
| 20260507220004 | 57 | 86 | 0.9 | 1.7 | 0.00 | 0.04 | 0.00 | 65 | 1012.7 |
| 20260507215503 | 57 | 71 | 1.7 | 3.5 | 0.00 | 0.04 | 0.04 | 65 | 1012.7 |
| 20260507215003 | 57 | 65 | 2.6 | 3.5 | 0.00 | 0.04 | 0.04 | 64 | 1012.7 |
| 20260507214503 | 58 | 65 | 2.6 | 3.5 | 0.00 | 0.04 | 0.04 | 64 | 1012.8 |
| 20260507214003 | 58 | 67 | 1.7 | 3.5 | 0.00 | 0.05 | 0.04 | 64 | 1012.5 |
| 20260507213503 | 58 | 67 | 0.9 | 3.5 | 0.00 | 0.05 | 0.04 | 64 | 1012.5 |
| 20260507213003 | 58 | 0 | 0.0 | 0.0 | 0.00 | 0.05 | 0.04 | 64 | 1012.5 |
| 20260507212524 | 58 | 67 | 0.0 | 0.9 | 0.00 | 0.05 | 0.04 | 63 | 1012.7 |
| 20260507212003 | 58 | 67 | 0.0 | 0.9 | 0.00 | 0.05 | 0.04 | 62 | 1012.5 |
| 20260507211503 | 58 | 0 | 0.0 | 0.0 | 0.00 | 0.05 | 0.04 | 62 | 1012.7 |
| 20260507211003 | 59 | 0 | 0.0 | 0.0 | 0.00 | 0.05 | 0.04 | 62 | 1012.5 |
| 20260507210503 | 59 | 0 | 0.0 | 0.0 | 0.00 | 0.05 | 0.04 | 61 | 1012.5 |
| 20260507210003 | 59 | 0 | 0.0 | 0.0 | 0.00 | 0.06 | 0.04 | 61 | 1012.5 |
| 20260507205503 | 59 | 0 | 0.0 | 0.0 | 0.00 | 0.06 | 0.04 | 61 | 1012.4 |
| 20260507205003 | 59 | 0 | 0.0 | 0.0 | 0.00 | 0.06 | 0.04 | 61 | 1012.5 |
| 20260507204503 | 59 | 0 | 0.0 | 0.0 | 0.00 | 0.09 | 0.04 | 60 | 1012.4 |
| 20260507204024 | 59 | 0 | 0.0 | 0.0 | 0.00 | 0.11 | 0.04 | 60 | 1012.5 |
| 20260507203503 | 59 | 0 | 0.0 | 0.0 | 0.00 | 0.11 | 0.04 | 59 | 1012.3 |
| 20260507203003 | 59 | 0 | 0.0 | 0.0 | 0.00 | 0.11 | 0.04 | 58 | 1012.5 |
| 20260507202503 | 59 | 0 | 0.0 | 0.0 | 0.00 | 0.11 | 0.04 | 58 | 1012.3 |
| 20260507202024 | 60 | 0 | 0.0 | 0.0 | 0.00 | 0.11 | 0.04 | 58 | 1012.3 |
| 20260507201503 | 60 | 0 | 0.0 | 0.0 | 0.00 | 0.11 | 0.04 | 58 | 1012.2 |
| 20260507201003 | 60 | 0 | 0.0 | 0.0 | 0.00 | 0.11 | 0.04 | 58 | 1012.1 |
| 20260507200503 | 60 | 0 | 0.0 | 0.0 | 0.00 | 0.11 | 0.04 | 58 | 1012.1 |
| 20260507200024 | 60 | 0 | 0.0 | 0.0 | 0.00 | 0.11 | 0.04 | 58 | 1011.9 |
| 20260507195503 | 60 | 0 | 0.0 | 0.0 | 0.00 | 0.11 | 0.04 | 57 | 1011.9 |
| 20260507195003 | 61 | 0 | 0.0 | 0.0 | 0.00 | 0.11 | 0.04 | 57 | 1011.9 |
| 20260507194503 | 61 | 0 | 0.0 | 0.0 | 0.00 | 0.11 | 0.04 | 57 | 1011.8 |
| 20260507194003 | 61 | 0 | 0.0 | 0.0 | 0.00 | 0.11 | 0.04 | 57 | 1011.7 |
| 20260507193503 | 61 | 0 | 0.0 | 0.0 | 0.00 | 0.11 | 0.04 | 57 | 1011.7 |
| 20260507193003 | 61 | 0 | 0.0 | 0.0 | 0.00 | 0.11 | 0.04 | 57 | 1011.6 |
| 20260507192503 | 61 | 0 | 0.0 | 0.0 | 0.00 | 0.11 | 0.04 | 56 | 1011.4 |
| 20260507192003 | 61 | 0 | 0.0 | 0.0 | 0.00 | 0.11 | 0.04 | 56 | 1011.5 |
| 20260507191503 | 61 | 0 | 0.0 | 0.0 | 0.00 | 0.11 | 0.04 | 56 | 1011.3 |
| 20260507191003 | 61 | 0 | 0.0 | 0.0 | 0.00 | 0.11 | 0.04 | 56 | 1011.2 |
| 20260507190504 | 61 | 0 | 0.0 | 0.0 | 0.00 | 0.11 | 0.04 | 56 | 1011.1 |
| 20260507190004 | 61 | 0 | 0.0 | 0.0 | 0.00 | 0.11 | 0.04 | 56 | 1011.4 |
| 20260507185503 | 62 | 0 | 0.0 | 0.0 | 0.00 | 0.11 | 0.04 | 55 | 1011.2 |
| 20260507185025 | 62 | 0 | 0.0 | 0.0 | 0.00 | 0.11 | 0.04 | 55 | 1011.2 |
| 20260507184503 | 62 | 0 | 0.0 | 0.0 | 0.00 | 0.11 | 0.04 | 54 | 1011.2 |
| 20260507184003 | 63 | 0 | 0.0 | 0.0 | 0.00 | 0.11 | 0.04 | 53 | 1011.1 |
| 20260507183503 | 63 | 0 | 0.0 | 0.0 | 0.00 | 0.11 | 0.04 | 53 | 1011.0 |
| 20260507183003 | 64 | 263 | 0.9 | 2.6 | 0.00 | 0.11 | 0.04 | 49 | 1011.0 |
| 20260507182503 | 64 | 251 | 0.9 | 2.6 | 0.00 | 0.12 | 0.04 | 49 | 1010.9 |
| 20260507182003 | 64 | 245 | 2.6 | 4.3 | 0.00 | 0.12 | 0.04 | 48 | 1010.8 |
| 20260507181504 | 65 | 268 | 3.5 | 4.3 | 0.00 | 0.14 | 0.04 | 48 | 1011.0 |
| 20260507181003 | 65 | 306 | 2.6 | 3.5 | 0.00 | 0.17 | 0.04 | 47 | 1010.8 |
| 20260507180503 | 66 | 307 | 3.5 | 4.3 | 0.00 | 0.20 | 0.04 | 46 | 1010.7 |
| 20260507180003 | 66 | 275 | 4.3 | 5.2 | 0.00 | 0.20 | 0.04 | 46 | 1010.5 |
| 20260507175503 | 66 | 245 | 4.3 | 6.1 | 0.00 | 0.21 | 0.04 | 45 | 1010.6 |
| 20260507175003 | 67 | 246 | 5.2 | 6.1 | 0.00 | 0.22 | 0.04 | 45 | 1010.5 |
| 20260507174503 | 67 | 251 | 4.3 | 6.1 | 0.00 | 0.22 | 0.04 | 45 | 1010.6 |
| 20260507174003 | 67 | 237 | 2.6 | 6.1 | 0.00 | 0.24 | 0.04 | 45 | 1010.4 |
| 20260507173503 | 67 | 236 | 2.6 | 4.3 | 0.00 | 0.25 | 0.04 | 45 | 1010.3 |
| 20260507173024 | 68 | 263 | 3.5 | 5.2 | 0.00 | 0.26 | 0.04 | 45 | 1010.3 |
| 20260507172503 | 68 | 276 | 5.2 | 6.1 | 0.00 | 0.27 | 0.04 | 44 | 1010.3 |
| 20260507172003 | 68 | 262 | 5.2 | 6.1 | 0.00 | 0.27 | 0.04 | 44 | 1010.2 |
| 20260507171503 | 69 | 263 | 4.3 | 6.1 | 0.00 | 0.28 | 0.04 | 44 | 1010.2 |
| 20260507171024 | 69 | 298 | 5.2 | 6.1 | 0.00 | 0.28 | 0.04 | 44 | 1010.3 |
| 20260507170503 | 69 | 281 | 5.2 | 6.1 | 0.00 | 0.28 | 0.04 | 44 | 1010.3 |
| 20260507170003 | 69 | 260 | 5.2 | 6.1 | 0.00 | 0.28 | 0.04 | 44 | 1010.3 |
| 20260507165503 | 69 | 282 | 6.1 | 7.8 | 0.00 | 0.28 | 0.04 | 44 | 1010.2 |
| 20260507165003 | 69 | 271 | 7.0 | 7.8 | 0.00 | 0.28 | 0.04 | 43 | 1010.3 |
| 20260507164524 | 69 | 252 | 7.0 | 8.7 | 0.00 | 0.28 | 0.04 | 43 | 1010.3 |
| 20260507164003 | 69 | 239 | 7.0 | 8.7 | 0.00 | 0.28 | 0.04 | 43 | 1010.3 |
| 20260507163524 | 69 | 237 | 7.0 | 8.7 | 0.00 | 0.28 | 0.04 | 43 | 1010.2 |
| 20260507163003 | 70 | 250 | 4.3 | 7.8 | 0.00 | 0.28 | 0.04 | 43 | 1010.2 |
| 20260507162503 | 70 | 269 | 3.5 | 7.0 | 0.00 | 0.28 | 0.04 | 43 | 1010.1 |
| 20260507162003 | 70 | 294 | 3.5 | 4.3 | 0.00 | 0.28 | 0.04 | 43 | 1010.1 |
| 20260507161503 | 70 | 314 | 4.3 | 5.2 | 0.00 | 0.28 | 0.04 | 42 | 1010.2 |
| 20260507161003 | 70 | 322 | 4.3 | 5.2 | 0.00 | 0.28 | 0.04 | 42 | 1010.2 |
| 20260507160503 | 70 | 271 | 4.3 | 7.0 | 0.00 | 0.28 | 0.04 | 43 | 1010.2 |
| 20260507160003 | 70 | 233 | 4.3 | 7.0 | 0.00 | 0.28 | 0.04 | 43 | 1010.1 |
| 20260507155503 | 70 | 208 | 5.2 | 7.8 | 0.00 | 0.28 | 0.04 | 43 | 1010.0 |
| 20260507155003 | 70 | 226 | 5.2 | 7.8 | 0.00 | 0.28 | 0.04 | 43 | 1010.1 |
| 20260507154503 | 70 | 271 | 2.6 | 6.1 | 0.00 | 0.28 | 0.04 | 44 | 1010.2 |
| 20260507154003 | 70 | 235 | 2.6 | 6.1 | 0.00 | 0.28 | 0.04 | 44 | 1010.2 |
| 20260507153504 | 70 | 227 | 5.2 | 8.7 | 0.00 | 0.28 | 0.04 | 44 | 1010.1 |
| 20260507153003 | 70 | 248 | 7.0 | 8.7 | 0.00 | 0.28 | 0.04 | 43 | 1010.1 |
| 20260507152503 | 71 | 274 | 4.3 | 8.7 | 0.00 | 0.28 | 0.04 | 44 | 1010.2 |
| 20260507152024 | 71 | 294 | 2.6 | 3.5 | 0.00 | 0.28 | 0.04 | 45 | 1010.2 |
| 20260507151503 | 71 | 261 | 2.6 | 8.7 | 0.00 | 0.28 | 0.04 | 45 | 1010.2 |
| 20260507151003 | 70 | 245 | 3.5 | 8.7 | 0.00 | 0.28 | 0.04 | 44 | 1010.2 |
| 20260507150503 | 70 | 272 | 2.6 | 4.3 | 0.00 | 0.28 | 0.04 | 46 | 1010.4 |
| 20260507150024 | 70 | 305 | 4.3 | 8.7 | 0.00 | 0.28 | 0.04 | 46 | 1010.2 |
| 20260507145503 | 70 | 309 | 5.2 | 8.7 | 0.00 | 0.28 | 0.04 | 44 | 1010.3 |
| 20260507145018 | 70 | 290 | 5.2 | 7.0 | 0.00 | 0.28 | 0.04 | 45 | 1010.2 |
| 20260507144503 | 70 | 273 | 4.3 | 7.0 | 0.00 | 0.28 | 0.04 | 46 | 1010.3 |
| 20260507144003 | 70 | 328 | 2.6 | 6.1 | 0.00 | 0.28 | 0.04 | 47 | 1010.2 |
| 20260507143524 | 70 | 141 | 2.6 | 3.5 | 0.00 | 0.28 | 0.04 | 46 | 1010.2 |
| 20260507143003 | 70 | 170 | 3.5 | 7.0 | 0.00 | 0.28 | 0.04 | 46 | 1010.5 |
| 20260507142503 | 70 | 224 | 2.6 | 7.0 | 0.00 | 0.28 | 0.04 | 46 | 1010.5 |
| 20260507142003 | 70 | 299 | 1.7 | 3.5 | 0.00 | 0.28 | 0.04 | 48 | 1010.4 |
| 20260507141524 | 69 | 223 | 2.6 | 7.0 | 0.00 | 0.28 | 0.04 | 48 | 1010.3 |
| 20260507141024 | 69 | 233 | 5.2 | 7.0 | 0.00 | 0.28 | 0.04 | 49 | 1010.4 |
| 20260507140503 | 70 | 240 | 5.2 | 7.0 | 0.00 | 0.28 | 0.04 | 50 | 1010.7 |
| 20260507140003 | 70 | 242 | 4.3 | 7.0 | 0.00 | 0.28 | 0.04 | 50 | 1010.5 |
| 20260507135503 | 70 | 250 | 3.5 | 7.0 | 0.00 | 0.28 | 0.04 | 51 | 1010.6 |
| 20260507135003 | 70 | 248 | 3.5 | 4.3 | 0.00 | 0.28 | 0.04 | 52 | 1010.5 |
| 20260507134503 | 69 | 287 | 2.6 | 4.3 | 0.00 | 0.28 | 0.04 | 52 | 1010.6 |
| 20260507134003 | 69 | 297 | 3.5 | 7.0 | 0.00 | 0.28 | 0.04 | 51 | 1010.7 |
| 20260507133503 | 68 | 304 | 5.2 | 7.0 | 0.00 | 0.28 | 0.04 | 51 | 1010.8 |
| 20260507133003 | 69 | 302 | 4.3 | 7.0 | 0.00 | 0.28 | 0.04 | 51 | 1010.9 |
| 20260507132503 | 69 | 268 | 3.5 | 7.8 | 0.00 | 0.28 | 0.04 | 52 | 1010.8 |
| 20260507132003 | 68 | 242 | 3.5 | 7.8 | 0.00 | 0.28 | 0.04 | 53 | 1010.8 |
| 20260507131503 | 68 | 219 | 6.1 | 8.7 | 0.00 | 0.28 | 0.04 | 54 | 1010.8 |
| 20260507131003 | 68 | 254 | 6.1 | 8.7 | 0.00 | 0.32 | 0.04 | 54 | 1011.1 |
| 20260507130503 | 68 | 284 | 5.2 | 8.7 | 0.00 | 0.33 | 0.04 | 53 | 1010.8 |
| 20260507130018 | 68 | 254 | 5.2 | 8.7 | 0.00 | 0.38 | 0.04 | 53 | 1011.0 |
| 20260507125503 | 68 | 247 | 4.3 | 7.0 | 0.00 | 0.41 | 0.04 | 54 | 1011.0 |
| 20260507125003 | 68 | 229 | 4.3 | 7.0 | 0.00 | 0.50 | 0.04 | 55 | 1011.0 |
| 20260507124503 | 68 | 223 | 6.1 | 8.7 | 0.00 | 0.51 | 0.04 | 55 | 1011.1 |
| 20260507124003 | 68 | 229 | 6.1 | 8.7 | 0.00 | 0.53 | 0.04 | 56 | 1011.2 |
| 20260507123503 | 67 | 245 | 5.2 | 7.0 | 0.00 | 0.53 | 0.04 | 57 | 1011.1 |
| 20260507123003 | 67 | 220 | 5.2 | 7.0 | 0.00 | 0.53 | 0.04 | 58 | 1011.1 |
| 20260507122503 | 66 | 221 | 5.2 | 7.0 | 0.00 | 0.53 | 0.04 | 57 | 1011.1 |
| 20260507122024 | 66 | 258 | 3.5 | 7.0 | 0.00 | 0.53 | 0.04 | 58 | 1011.2 |
| 20260507121503 | 67 | 307 | 4.3 | 8.7 | 0.00 | 0.53 | 0.04 | 57 | 1010.8 |
| 20260507121003 | 66 | 119 | 6.1 | 8.7 | 0.00 | 0.53 | 0.04 | 57 | 1011.0 |
| 20260507120503 | 65 | 146 | 5.2 | 7.0 | 0.00 | 0.53 | 0.04 | 60 | 1011.2 |
| 20260507120004 | 65 | 237 | 3.5 | 7.0 | 0.00 | 0.53 | 0.04 | 60 | 1011.1 |
| 20260507115503 | 64 | 255 | 4.3 | 6.1 | 0.00 | 0.53 | 0.04 | 61 | 1011.1 |
| 20260507115003 | 64 | 270 | 3.5 | 6.1 | 0.00 | 0.53 | 0.04 | 61 | 1011.1 |
| 20260507114504 | 64 | 336 | 2.6 | 4.3 | 0.00 | 0.53 | 0.04 | 62 | 1011.2 |
| 20260507114004 | 64 | 295 | 3.5 | 4.3 | 0.00 | 0.53 | 0.04 | 61 | 1011.2 |
| 20260507113504 | 64 | 292 | 3.5 | 4.3 | 0.00 | 0.53 | 0.04 | 63 | 1011.3 |
| 20260507113005 | 63 | 286 | 0.9 | 4.3 | 0.00 | 0.53 | 0.04 | 68 | 1011.4 |
| 20260507112504 | 63 | 13 | 0.9 | 4.3 | 0.00 | 0.53 | 0.04 | 69 | 1011.5 |
| 20260507112004 | 63 | 234 | 2.6 | 4.3 | 0.00 | 0.53 | 0.04 | 68 | 1011.5 |
| 20260507111506 | 62 | 235 | 3.5 | 4.3 | 0.00 | 0.53 | 0.04 | 68 | 1011.5 |
| 20260507111004 | 62 | 266 | 3.5 | 5.2 | 0.00 | 0.53 | 0.04 | 67 | 1011.5 |
| 20260507110507 | 62 | 273 | 2.6 | 5.2 | 0.00 | 0.53 | 0.04 | 68 | 1011.5 |
| 20260507110005 | 62 | 246 | 2.6 | 3.5 | 0.00 | 0.53 | 0.04 | 68 | 1011.7 |
| 20260507105504 | 62 | 277 | 2.6 | 3.5 | 0.00 | 0.53 | 0.04 | 67 | 1011.6 |
| 20260507105004 | 62 | 265 | 1.7 | 3.5 | 0.00 | 0.53 | 0.04 | 67 | 1011.8 |
| 20260507104504 | 62 | 209 | 1.7 | 4.3 | 0.00 | 0.53 | 0.04 | 67 | 1011.8 |
| 20260507104004 | 62 | 249 | 3.5 | 4.3 | 0.00 | 0.53 | 0.04 | 66 | 1011.9 |
| 20260507103504 | 63 | 294 | 3.5 | 5.2 | 0.00 | 0.53 | 0.04 | 66 | 1011.9 |
| 20260507103004 | 63 | 303 | 4.3 | 5.2 | 0.00 | 0.53 | 0.04 | 66 | 1011.9 |
| 20260507102504 | 64 | 317 | 3.5 | 5.2 | 0.00 | 0.53 | 0.04 | 63 | 1011.9 |
| 20260507102006 | 64 | 273 | 3.5 | 5.2 | 0.00 | 0.53 | 0.04 | 64 | 1011.9 |
| 20260507101504 | 64 | 205 | 3.5 | 5.2 | 0.00 | 0.53 | 0.04 | 65 | 1012.1 |
| 20260507101004 | 64 | 186 | 2.6 | 5.2 | 0.00 | 0.53 | 0.04 | 65 | 1012.0 |
| 20260507100504 | 64 | 190 | 3.5 | 7.8 | 0.00 | 0.53 | 0.04 | 65 | 1011.9 |
| 20260507100025 | 64 | 216 | 5.2 | 7.8 | 0.00 | 0.53 | 0.04 | 65 | 1012.0 |
| 20260507095504 | 64 | 230 | 4.3 | 7.0 | 0.00 | 0.54 | 0.04 | 66 | 1011.9 |
| 20260507095004 | 64 | 264 | 4.3 | 6.1 | 0.00 | 0.54 | 0.04 | 65 | 1011.9 |
| 20260507094504 | 64 | 261 | 4.3 | 7.0 | 0.00 | 0.54 | 0.04 | 65 | 1012.0 |
| 20260507094004 | 64 | 233 | 4.3 | 7.0 | 0.00 | 0.54 | 0.04 | 67 | 1011.9 |
| 20260507093504 | 64 | 207 | 4.3 | 5.2 | 0.00 | 0.54 | 0.04 | 68 | 1011.9 |
| 20260507093004 | 64 | 213 | 4.3 | 5.2 | 0.00 | 0.54 | 0.04 | 69 | 1011.8 |
| 20260507092504 | 64 | 216 | 4.3 | 7.0 | 0.00 | 0.54 | 0.04 | 69 | 1011.7 |
| 20260507092004 | 64 | 220 | 4.3 | 7.0 | 0.00 | 0.54 | 0.04 | 69 | 1011.9 |
| 20260507091504 | 63 | 267 | 3.5 | 4.3 | 0.00 | 0.54 | 0.04 | 72 | 1011.8 |
| 20260507091004 | 63 | 307 | 1.7 | 4.3 | 0.00 | 0.54 | 0.04 | 72 | 1011.7 |
| 20260507090504 | 62 | 33 | 0.9 | 2.6 | 0.00 | 0.54 | 0.04 | 73 | 1011.8 |
| 20260507090005 | 62 | 117 | 2.6 | 6.1 | 0.00 | 0.54 | 0.04 | 73 | 1011.7 |
| 20260507085504 | 62 | 129 | 3.5 | 6.1 | 0.00 | 0.54 | 0.04 | 74 | 1011.7 |
| 20260507085004 | 62 | 72 | 2.6 | 3.5 | 0.00 | 0.54 | 0.04 | 75 | 1011.8 |
| 20260507084525 | 62 | 39 | 1.7 | 3.5 | 0.00 | 0.54 | 0.04 | 75 | 1011.7 |
| 20260507084004 | 61 | 229 | 1.7 | 3.5 | 0.00 | 0.54 | 0.04 | 76 | 1011.7 |
| 20260507083504 | 61 | 97 | 4.3 | 5.2 | 0.00 | 0.54 | 0.04 | 76 | 1011.7 |
| 20260507083005 | 61 | 85 | 3.5 | 7.0 | 0.00 | 0.54 | 0.04 | 78 | 1011.7 |
| 20260507082504 | 61 | 145 | 1.7 | 7.0 | 0.00 | 0.54 | 0.04 | 80 | 1011.8 |
| 20260507082025 | 60 | 55 | 1.7 | 6.1 | 0.00 | 0.54 | 0.04 | 80 | 1011.7 |
| 20260507081504 | 59 | 36 | 3.5 | 6.1 | 0.00 | 0.54 | 0.04 | 80 | 1011.7 |
| 20260507081004 | 58 | 22 | 3.5 | 3.5 | 0.00 | 0.54 | 0.04 | 80 | 1011.6 |
| 20260507080504 | 58 | 15 | 3.5 | 3.5 | 0.00 | 0.54 | 0.04 | 80 | 1011.5 |
| 20260507080005 | 58 | 10 | 3.5 | 3.5 | 0.00 | 0.54 | 0.04 | 80 | 1011.4 |
| 20260507075504 | 57 | 9 | 3.5 | 4.3 | 0.00 | 0.54 | 0.04 | 80 | 1011.5 |
| 20260507075004 | 57 | 18 | 4.3 | 6.1 | 0.00 | 0.54 | 0.04 | 80 | 1011.6 |
| 20260507074504 | 57 | 25 | 5.2 | 6.1 | 0.00 | 0.54 | 0.04 | 81 | 1011.5 |
| 20260507074025 | 57 | 32 | 5.2 | 6.1 | 0.00 | 0.54 | 0.04 | 82 | 1011.5 |
| 20260507073525 | 57 | 28 | 4.3 | 6.1 | 0.00 | 0.54 | 0.04 | 83 | 1011.5 |
| 20260507073004 | 56 | 17 | 4.3 | 6.1 | 0.00 | 0.54 | 0.04 | 84 | 1011.5 |
| 20260507072525 | 55 | 15 | 5.2 | 6.1 | 0.00 | 0.54 | 0.04 | 84 | 1011.4 |
| 20260507072004 | 55 | 13 | 5.2 | 7.0 | 0.00 | 0.54 | 0.04 | 84 | 1011.6 |
| 20260507071504 | 54 | 11 | 3.5 | 7.0 | 0.00 | 0.54 | 0.04 | 85 | 1011.4 |
| 20260507071004 | 54 | 7 | 2.6 | 4.3 | 0.00 | 0.56 | 0.04 | 89 | 1011.5 |
| 20260507070504 | 53 | 20 | 3.5 | 6.1 | 0.00 | 0.56 | 0.04 | 89 | 1011.4 |
| 20260507070009 | 53 | 15 | 4.3 | 6.1 | 0.00 | 0.56 | 0.04 | 89 | 1011.4 |
| 20260507065504 | 52 | 7 | 5.2 | 7.0 | 0.00 | 0.56 | 0.04 | 89 | 1011.3 |
| 20260507065004 | 52 | 360 | 5.2 | 7.0 | 0.00 | 0.56 | 0.04 | 90 | 1011.3 |
| 20260507064504 | 52 | 4 | 5.2 | 7.0 | 0.00 | 0.56 | 0.04 | 90 | 1011.3 |
| 20260507064004 | 52 | 9 | 5.2 | 7.0 | 0.00 | 0.56 | 0.04 | 90 | 1011.2 |
| 20260507063504 | 52 | 9 | 5.2 | 7.0 | 0.00 | 0.56 | 0.04 | 90 | 1011.0 |
| 20260507063004 | 51 | 8 | 5.2 | 6.1 | 0.00 | 0.56 | 0.04 | 90 | 1011.2 |
| 20260507062504 | 51 | 13 | 5.2 | 9.6 | 0.00 | 0.56 | 0.04 | 90 | 1011.1 |
| 20260507062004 | 51 | 13 | 6.1 | 9.6 | 0.00 | 0.56 | 0.04 | 90 | 1011.0 |
| 20260507061504 | 51 | 12 | 6.1 | 7.8 | 0.00 | 0.56 | 0.04 | 90 | 1011.0 |
| 20260507061004 | 51 | 19 | 5.2 | 7.8 | 0.00 | 0.56 | 0.04 | 90 | 1011.1 |
| 20260507060525 | 51 | 18 | 5.2 | 7.0 | 0.00 | 0.56 | 0.04 | 90 | 1010.9 |
| 20260507060025 | 51 | 16 | 5.2 | 7.0 | 0.00 | 0.56 | 0.04 | 90 | 1010.9 |
| 20260507055504 | 51 | 16 | 4.3 | 7.0 | 0.00 | 0.56 | 0.04 | 90 | 1010.8 |
| 20260507055004 | 51 | 13 | 3.5 | 4.3 | 0.00 | 0.56 | 0.04 | 90 | 1011.0 |
| 20260507054504 | 50 | 7 | 4.3 | 7.0 | 0.00 | 0.56 | 0.04 | 90 | 1010.8 |
| 20260507054025 | 51 | 13 | 5.2 | 7.0 | 0.00 | 0.56 | 0.04 | 90 | 1010.8 |
| 20260507053504 | 51 | 29 | 5.2 | 7.0 | 0.00 | 0.56 | 0.04 | 90 | 1010.7 |
| 20260507053025 | 51 | 23 | 5.2 | 7.0 | 0.00 | 0.56 | 0.04 | 91 | 1010.6 |
| 20260507052504 | 51 | 20 | 6.1 | 8.7 | 0.00 | 0.57 | 0.04 | 91 | 1010.5 |
| 20260507052004 | 50 | 21 | 6.1 | 8.7 | 0.00 | 0.57 | 0.04 | 91 | 1010.6 |
| 20260507051504 | 50 | 21 | 6.1 | 8.7 | 0.00 | 0.57 | 0.04 | 91 | 1010.4 |
| 20260507051004 | 50 | 48 | 6.1 | 8.7 | 0.00 | 0.57 | 0.04 | 91 | 1010.3 |
| 20260507050504 | 50 | 64 | 6.1 | 7.0 | 0.00 | 0.57 | 0.04 | 91 | 1010.2 |
| 20260507050005 | 50 | 41 | 6.1 | 7.0 | 0.00 | 0.57 | 0.04 | 91 | 1010.3 |
| 20260507045504 | 49 | 17 | 5.2 | 7.0 | 0.00 | 0.57 | 0.04 | 91 | 1010.4 |
| 20260507045025 | 49 | 13 | 4.3 | 5.2 | 0.00 | 0.57 | 0.04 | 91 | 1010.2 |
| 20260507044504 | 49 | 18 | 4.3 | 6.1 | 0.00 | 0.57 | 0.04 | 91 | 1010.2 |
| 20260507044004 | 49 | 36 | 5.2 | 7.8 | 0.00 | 0.57 | 0.04 | 91 | 1010.0 |
| 20260507043504 | 49 | 35 | 6.1 | 7.8 | 0.00 | 0.57 | 0.04 | 91 | 1010.0 |
| 20260507043004 | 49 | 17 | 4.3 | 6.1 | 0.00 | 0.57 | 0.04 | 91 | 1009.9 |
| 20260507042504 | 49 | 8 | 5.2 | 6.1 | 0.00 | 0.57 | 0.04 | 91 | 1009.9 |
| 20260507042025 | 49 | 12 | 4.3 | 6.1 | 0.00 | 0.57 | 0.04 | 91 | 1009.7 |
| 20260507041525 | 50 | 22 | 4.3 | 6.1 | 0.00 | 0.57 | 0.04 | 91 | 1009.9 |
| 20260507041004 | 50 | 12 | 4.3 | 6.1 | 0.00 | 0.57 | 0.04 | 91 | 1009.7 |
| 20260507040504 | 50 | 7 | 4.3 | 6.1 | 0.00 | 0.57 | 0.04 | 91 | 1009.6 |
| 20260507040004 | 50 | 15 | 5.2 | 7.0 | 0.00 | 0.57 | 0.04 | 91 | 1009.7 |
| 20260507035504 | 50 | 18 | 5.2 | 7.0 | 0.00 | 0.57 | 0.04 | 91 | 1009.9 |
| 20260507035004 | 50 | 14 | 6.1 | 7.8 | 0.00 | 0.57 | 0.04 | 91 | 1009.9 |
| 20260507034505 | 50 | 13 | 6.1 | 10.4 | 0.00 | 0.57 | 0.04 | 91 | 1009.6 |
| 20260507034025 | 50 | 16 | 6.1 | 10.4 | 0.00 | 0.57 | 0.04 | 91 | 1009.7 |
| 20260507033525 | 50 | 16 | 7.0 | 10.4 | 0.00 | 0.57 | 0.04 | 91 | 1009.7 |
| 20260507033004 | 50 | 23 | 7.0 | 8.7 | 0.00 | 0.58 | 0.04 | 91 | 1009.7 |
| 20260507032525 | 50 | 37 | 7.8 | 7.8 | 0.00 | 0.58 | 0.04 | 91 | 1009.7 |
| 20260507032004 | 50 | 45 | 7.8 | 8.7 | 0.00 | 0.58 | 0.04 | 91 | 1009.7 |
| 20260507031504 | 50 | 48 | 7.8 | 9.6 | 0.00 | 0.58 | 0.04 | 91 | 1009.7 |
| 20260507031004 | 50 | 49 | 7.0 | 9.6 | 0.00 | 0.59 | 0.04 | 91 | 1009.7 |
| 20260507030504 | 50 | 47 | 6.1 | 9.6 | 0.01 | 0.69 | 0.04 | 91 | 1009.6 |
| 20260507030004 | 50 | 57 | 7.0 | 9.6 | 0.01 | 0.69 | 0.04 | 91 | 1009.7 |
| 20260507025504 | 50 | 47 | 7.0 | 9.6 | 0.01 | 0.69 | 0.04 | 91 | 1009.7 |
| 20260507025004 | 50 | 41 | 7.0 | 8.7 | 0.01 | 0.70 | 0.04 | 91 | 1009.7 |
| 20260507024504 | 50 | 58 | 7.0 | 10.4 | 0.01 | 0.73 | 0.04 | 91 | 1009.7 |
| 20260507024025 | 50 | 49 | 7.8 | 10.4 | 0.01 | 0.79 | 0.04 | 91 | 1009.5 |
| 20260507023525 | 50 | 38 | 7.0 | 8.7 | 0.01 | 0.79 | 0.04 | 91 | 1009.6 |
| 20260507023004 | 50 | 48 | 7.0 | 8.7 | 0.01 | 0.79 | 0.04 | 91 | 1009.7 |
| 20260507022504 | 50 | 49 | 6.1 | 7.0 | 0.01 | 0.79 | 0.04 | 91 | 1009.7 |
| 20260507022004 | 50 | 40 | 7.0 | 9.6 | 0.01 | 0.79 | 0.04 | 91 | 1009.7 |
| 20260507021504 | 50 | 47 | 7.8 | 9.6 | 0.01 | 0.79 | 0.04 | 91 | 1009.9 |
| 20260507021025 | 50 | 60 | 7.0 | 8.7 | 0.01 | 0.79 | 0.04 | 91 | 1009.7 |
| 20260507020504 | 50 | 54 | 6.1 | 8.7 | 0.00 | 0.78 | 0.02 | 91 | 1009.9 |
| 20260507020004 | 50 | 40 | 6.1 | 8.7 | 0.00 | 0.78 | 0.02 | 91 | 1009.7 |
| 20260507015504 | 50 | 35 | 6.1 | 7.0 | 0.00 | 0.78 | 0.02 | 91 | 1009.9 |
| 20260507015004 | 50 | 32 | 5.2 | 7.0 | 0.00 | 0.78 | 0.02 | 91 | 1009.9 |
| 20260507014525 | 50 | 38 | 5.2 | 7.0 | 0.00 | 0.78 | 0.02 | 91 | 1010.0 |
| 20260507014004 | 50 | 48 | 5.2 | 7.0 | 0.00 | 0.78 | 0.02 | 91 | 1009.7 |
| 20260507013504 | 50 | 47 | 4.3 | 6.1 | 0.00 | 0.78 | 0.02 | 91 | 1009.5 |
| 20260507013004 | 50 | 36 | 3.5 | 5.2 | 0.01 | 0.78 | 0.02 | 91 | 1009.6 |
| 20260507012504 | 51 | 20 | 2.6 | 5.2 | 0.01 | 0.78 | 0.02 | 91 | 1009.6 |
| 20260507012025 | 51 | 12 | 2.6 | 6.1 | 0.01 | 0.78 | 0.02 | 91 | 1009.5 |
| 20260507011504 | 51 | 33 | 5.2 | 7.0 | 0.01 | 0.78 | 0.02 | 90 | 1009.7 |
| 20260507011004 | 50 | 31 | 5.2 | 7.0 | 0.01 | 0.79 | 0.02 | 90 | 1009.4 |
| 20260507010504 | 50 | 23 | 4.3 | 7.0 | 0.01 | 0.79 | 0.02 | 90 | 1009.4 |
| 20260507010004 | 51 | 16 | 3.5 | 5.2 | 0.01 | 0.79 | 0.02 | 90 | 1009.6 |
| 20260507005525 | 51 | 17 | 2.6 | 3.5 | 0.01 | 0.79 | 0.02 | 90 | 1009.6 |
| 20260507005004 | 51 | 15 | 2.6 | 4.3 | 0.01 | 0.79 | 0.02 | 90 | 1009.5 |
| 20260507004504 | 51 | 9 | 2.6 | 4.3 | 0.01 | 0.79 | 0.02 | 90 | 1009.6 |
| 20260507004004 | 51 | 12 | 2.6 | 4.3 | 0.01 | 0.79 | 0.02 | 90 | 1009.4 |
| 20260507003504 | 51 | 39 | 3.5 | 6.1 | 0.01 | 0.79 | 0.02 | 90 | 1009.5 |
| 20260507003004 | 51 | 49 | 5.2 | 9.6 | 0.00 | 0.78 | 0.01 | 90 | 1009.4 |
| 20260507002504 | 51 | 47 | 7.0 | 9.6 | 0.00 | 0.78 | 0.01 | 90 | 1009.3 |
| 20260507002025 | 51 | 35 | 7.8 | 9.6 | 0.00 | 0.78 | 0.01 | 90 | 1009.4 |
| 20260507001504 | 51 | 18 | 6.1 | 7.0 | 0.00 | 0.78 | 0.01 | 90 | 1009.6 |
| 20260507001025 | 51 | 2 | 4.3 | 7.0 | 0.00 | 0.78 | 0.01 | 90 | 1009.5 |
| 20260507000505 | 51 | 349 | 3.5 | 3.5 | 0.00 | 0.78 | 0.01 | 90 | 1009.5 |
| 20260507000004 | 51 | 14 | 4.3 | 7.0 | 0.00 | 0.78 | 0.01 | 90 | 1009.6 |
| 20260506235504 | 51 | 17 | 5.2 | 7.0 | 0.00 | 0.78 | 0.01 | 90 | 1009.5 |
| 20260506235004 | 51 | 17 | 4.3 | 7.0 | 0.00 | 0.78 | 0.01 | 90 | 1009.5 |
| 20260506234504 | 51 | 17 | 4.3 | 7.0 | 0.00 | 0.78 | 0.01 | 90 | 1009.6 |
| 20260506234004 | 51 | 25 | 4.3 | 5.2 | 0.00 | 0.78 | 0.01 | 90 | 1009.5 |
| 20260506233504 | 51 | 29 | 5.2 | 7.0 | 0.00 | 0.78 | 0.01 | 90 | 1009.4 |
| 20260506233004 | 51 | 17 | 6.1 | 7.8 | 0.00 | 0.78 | 0.01 | 90 | 1009.4 |
| 20260506232525 | 51 | 15 | 6.1 | 7.8 | 0.01 | 0.78 | 0.01 | 90 | 1009.4 |
| 20260506232004 | 51 | 25 | 7.0 | 9.6 | 0.01 | 0.78 | 0.01 | 90 | 1009.4 |
| 20260506231505 | 51 | 5 | 7.8 | 9.6 | 0.01 | 0.78 | 0.01 | 90 | 1009.5 |
| 20260506231003 | 51 | 12 | 6.1 | 9.6 | 0.01 | 0.78 | 0.01 | 90 | 1009.4 |
| 20260506230503 | 51 | 26 | 7.0 | 9.6 | 0.01 | 0.78 | 0.01 | 90 | 1009.6 |
| 20260506230004 | 51 | 28 | 7.0 | 9.6 | 0.01 | 0.78 | 0.01 | 90 | 1009.4 |
| 20260506225524 | 51 | 25 | 7.0 | 9.6 | 0.01 | 0.78 | 0.01 | 90 | 1009.3 |